Home > Weather > Liberec > Past weeks

Flag for Czech Republic Past Weather in Liberec, Czech Republic — Yesterday and Last 2 Weeks

Now
77 °F

Scattered clouds.


Feels Like: 79 °F
Forecast: 60 / 79 °F
Wind: 3 mph from Northwest

Location: Liberec

Current Time: Jul 26, 2016 at 12:20:24 PM

Latest Report: Jul 26, 2016 at 11:00 AM


Visibility: 16 mi

Pressure: 30.04 "Hg

Humidity: 51%

Dew Point: 58 °F

Location of LiberecLocation

Past Weather in Liberec — Graph

°F

Liberec Temperature Yesterday

Maximum temperature yesterday: 79 °F (at 3:00 PM)
Minimum temperature yesterday: 55 °F (at 4:00 AM)
Average temperature yesterday: 68 °F

High & Low Weather Summary for the Past Weeks

 TemperatureHumidityPressure
High87 °F (Jul 11, 4:00 PM)98% (Jul 13, 4:00 AM)30.29 "Hg (Jul 13, 4:00 AM)
Low47 °F (Jul 17, 2:00 AM)33% (Jul 11, 6:00 PM)29.75 "Hg (Jul 11, 6:00 PM)
Average64 °F75%30.03 "Hg
* Reported Jul 11 11:00 AM — Jul 26 11:00 AM, Liberec, Weather by CustomWeather, © 2016

Note: Actual official high and low records may vary slightly from our data, if they occured in-between our weather recording intervals... More about our weather records

Advertising

Liberec Weather History for the Previous 24 Hours

Scroll right to see more
 ConditionsComfort  
Time TempWeatherWind HumidityBarometerVisibility
11:00 AM
Tue, Jul 26
77 °FScattered clouds.3 mph51%30.04 "Hg16 mi
10:00 AM74 °FScattered clouds.5 mph60%30.05 "Hg16 mi
9:00 AM71 °FScattered clouds.2 mph63%30.06 "Hg16 mi
8:00 AM67 °FScattered clouds.1 mph68%30.06 "Hg14 mi
7:00 AM64 °FMild.No wind86%30.07 "Hg6 mi
6:00 AM59 °FCool.No wind98%30.08 "Hg2 mi
5:00 AM58 °FDuststorm.1 mph97%30.07 "Hg1 mi
4:00 AM58 °FFog.1 mph97%30.08 "Hg1 mi
3:00 AM59 °FCool.1 mph98%30.07 "Hg2 mi
2:00 AM60 °FFog.1 mph97%30.06 "Hg2 mi
1:00 AM60 °FCool.No wind94%30.07 "Hg6 mi
12:00 AM62 °FFog.No wind91%30.07 "Hg3 mi
11:00 PM
Mon, Jul 25
64 °FMild.No wind87%30.06 "Hg11 mi
10:00 PM66 °FPassing clouds.No wind83%30.04 "Hg12 mi
9:00 PM69 °FPassing clouds.1 mph73%30.02 "Hg16 mi
8:00 PM76 °FPassing clouds.1 mph57%30.00 "Hg22 mi
7:00 PM77 °FWarm.1 mph51%29.99 "Hg12 mi
6:00 PM79 °FWarm.1 mph48%29.97 "Hg12 mi
5:00 PM79 °FScattered clouds.2 mph44%29.97 "Hg25 mi
4:00 PM79 °FPartly sunny.1 mph48%29.98 "Hg22 mi
3:00 PM79 °FPartly sunny.2 mph44%29.99 "Hg22 mi
2:00 PM77 °FPartly sunny.3 mph49%30.00 "Hg19 mi
1:00 PM76 °FPartly sunny.2 mph47%30.01 "Hg19 mi
12:00 PM77 °FPartly sunny.2 mph48%30.01 "Hg19 mi
Weather by CustomWeather, © 2016

See weather overviewHow to use our weather pages